HTAK62 CYYJ-CYYJ

Flight info

Callsign HTAK62
Flight time 0h 3m
Altitude 2500
Route CYYJ CAT4 CYYJ
Aircraft H60/M-VGDW/C

Departure

Time 2026-04-27 17:28
Airport Victoria International Airport (CYYJ)

Arrival

Time 2026-04-27 17:31
Airport Victoria International Airport (CYYJ)
Time Latitude Longitude Altitude Speed Heading
2026-04-27 17:27 48.64517 -123.43455 52 ft 0 kts 313°
2026-04-27 17:28 48.64491 -123.43440 83 ft 11 kts 233°
2026-04-27 17:28 48.64114 -123.43779 444 ft 114 kts 216°
2026-04-27 17:28 48.63946 -123.46633 1452 ft 156 kts 286°
2026-04-27 17:29 48.64252 -123.48183 1471 ft 151 kts 287°
2026-04-27 17:29 48.64562 -123.49732 1484 ft 152 kts 287°
2026-04-27 17:29 48.64866 -123.51258 1484 ft 151 kts 287°
2026-04-27 17:29 48.65171 -123.52783 1489 ft 152 kts 287°
2026-04-27 17:30 48.65661 -123.54214 1485 ft 155 kts 306°
2026-04-27 17:30 48.67360 -123.56254 1502 ft 154 kts 322°
2026-04-27 17:30 48.68167 -123.57280 1242 ft 147 kts 319°
2026-04-27 17:31 48.68868 -123.58189 987 ft 122 kts 319°
2026-04-27 17:31 48.69493 -123.59071 863 ft 119 kts 316°
2026-04-27 17:31 48.70053 -123.59541 643 ft 64 kts 90°
2026-04-27 17:31 48.69978 -123.59296 396 ft 18 kts 162°
2026-04-27 17:32 48.69941 -123.59301 339 ft 1 kts 174°
2026-04-27 17:34 48.69942 -123.59301 338 ft 1 kts 174°
2026-04-27 17:34 48.69937 -123.59271 493 ft 20 kts 166°
2026-04-27 17:34 48.69662 -123.58778 676 ft 92 kts 152°
2026-04-27 17:34 48.69057 -123.58912 845 ft 104 kts 247°
2026-04-27 17:35 48.69293 -123.59844 1039 ft 100 kts 326°
2026-04-27 17:35 48.69859 -123.60611 1412 ft 115 kts 320°
2026-04-27 17:35 48.70506 -123.61339 1774 ft 115 kts 325°
2026-04-27 17:35 48.71199 -123.62051 1999 ft 129 kts 327°
2026-04-27 17:36 48.72026 -123.62861 1982 ft 146 kts 327°
2026-04-27 17:36 48.72877 -123.63699 1983 ft 146 kts 327°
2026-04-27 17:36 48.73730 -123.64539 1986 ft 146 kts 327°
2026-04-27 17:36 48.74593 -123.65387 1985 ft 146 kts 327°
2026-04-27 17:37 48.75449 -123.66313 1984 ft 146 kts 322°
2026-04-27 17:37 48.76108 -123.67440 2316 ft 142 kts 310°
2026-04-27 17:37 48.76764 -123.68645 2461 ft 150 kts 310°
2026-04-27 17:37 48.77436 -123.69861 2619 ft 148 kts 310°
2026-04-27 17:38 48.78094 -123.71057 2817 ft 147 kts 310°
2026-04-27 17:38 48.78772 -123.72287 3043 ft 144 kts 310°
2026-04-27 17:38 48.79422 -123.73457 3270 ft 142 kts 310°
2026-04-27 17:38 48.80054 -123.74601 3513 ft 141 kts 310°
2026-04-27 17:39 48.80727 -123.75831 3459 ft 163 kts 310°
2026-04-27 17:39 48.81459 -123.77164 3496 ft 155 kts 310°
2026-04-27 17:39 48.82134 -123.78424 3504 ft 157 kts 308°
2026-04-27 17:39 48.82779 -123.79815 3864 ft 160 kts 306°
2026-04-27 17:40 48.83393 -123.81257 4133 ft 163 kts 304°
2026-04-27 17:40 48.83798 -123.82238 4361 ft 161 kts 304°
2026-04-27 17:40 48.84414 -123.83742 4483 ft 175 kts 303°
2026-04-27 17:40 48.85037 -123.85314 4509 ft 168 kts 302°
2026-04-27 17:41 48.85642 -123.86859 4517 ft 166 kts 302°
2026-04-27 17:41 48.86237 -123.88380 4521 ft 165 kts 302°
2026-04-27 17:41 48.86823 -123.89882 4522 ft 166 kts 302°
2026-04-27 17:41 48.87426 -123.91375 4520 ft 170 kts 303°
2026-04-27 17:42 48.88155 -123.92836 4521 ft 172 kts 308°
2026-04-27 17:42 48.88852 -123.94265 4518 ft 166 kts 308°
2026-04-27 17:42 48.89536 -123.95672 4517 ft 166 kts 308°
2026-04-27 17:42 48.90232 -123.97100 4529 ft 166 kts 308°
2026-04-27 17:43 48.90926 -123.98529 4522 ft 165 kts 308°
2026-04-27 17:43 48.91611 -123.99941 4531 ft 166 kts 308°
2026-04-27 17:43 48.92307 -124.01370 4527 ft 166 kts 308°
2026-04-27 17:43 48.93002 -124.02769 4521 ft 165 kts 309°
2026-04-27 17:44 48.93824 -124.04015 4536 ft 164 kts 317°
2026-04-27 17:44 48.94655 -124.05232 4531 ft 166 kts 317°
2026-04-27 17:44 48.95486 -124.06453 4521 ft 166 kts 317°
2026-04-27 17:44 48.96321 -124.07679 4522 ft 167 kts 317°
2026-04-27 17:45 48.97153 -124.08898 4516 ft 166 kts 317°
2026-04-27 17:45 48.97995 -124.10136 4528 ft 167 kts 317°
2026-04-27 17:45 48.98830 -124.11360 4523 ft 167 kts 317°
2026-04-27 17:45 48.99665 -124.12584 4537 ft 166 kts 317°
2026-04-27 17:46 49.00500 -124.13808 4535 ft 166 kts 317°
2026-04-27 17:46 49.01334 -124.15033 4535 ft 166 kts 317°
2026-04-27 17:46 49.02180 -124.16274 4517 ft 167 kts 317°
2026-04-27 17:46 49.03003 -124.17480 4535 ft 166 kts 317°
2026-04-27 17:47 49.03861 -124.18739 4533 ft 167 kts 317°
2026-04-27 17:47 49.04422 -124.19562 4518 ft 167 kts 317°
2026-04-27 17:47 49.05532 -124.21189 4534 ft 167 kts 317°
2026-04-27 17:47 49.06369 -124.22418 4531 ft 167 kts 317°
2026-04-27 17:48 49.07218 -124.23663 4515 ft 167 kts 317°
2026-04-27 17:48 49.08052 -124.24889 4534 ft 167 kts 317°
2026-04-27 17:48 49.08889 -124.26117 4526 ft 167 kts 317°
2026-04-27 17:48 49.09736 -124.27363 4525 ft 167 kts 317°
2026-04-27 17:49 49.10571 -124.28592 4512 ft 167 kts 317°
2026-04-27 17:49 49.11407 -124.29821 4521 ft 168 kts 317°
2026-04-27 17:49 49.12270 -124.31088 4526 ft 168 kts 317°
2026-04-27 17:49 49.13121 -124.32339 4525 ft 167 kts 317°
2026-04-27 17:50 49.13959 -124.33571 4525 ft 167 kts 317°
2026-04-27 17:50 49.15637 -124.36039 4523 ft 168 kts 317°
2026-04-27 17:50 49.16489 -124.37292 4522 ft 168 kts 317°
2026-04-27 17:51 49.17332 -124.38528 4522 ft 168 kts 317°
2026-04-27 17:51 49.18307 -124.39515 4417 ft 170 kts 332°
2026-04-27 17:51 49.19297 -124.40468 4358 ft 168 kts 325°
2026-04-27 17:51 49.19822 -124.41405 4279 ft 170 kts 308°
2026-04-27 17:52 49.20250 -124.43095 4116 ft 171 kts 287°
2026-04-27 17:52 49.20571 -124.44827 4117 ft 167 kts 287°
2026-04-27 17:52 49.20884 -124.46512 4198 ft 162 kts 287°
2026-04-27 17:52 49.21221 -124.47970 4053 ft 135 kts 295°
2026-04-27 17:53 49.21797 -124.49088 4056 ft 138 kts 314°
2026-04-27 17:53 49.22624 -124.49840 3943 ft 137 kts 337°
2026-04-27 17:53 49.23504 -124.50379 3803 ft 137 kts 337°
2026-04-27 17:53 49.24515 -124.50384 3009 ft 143 kts 11°
2026-04-27 17:54 49.25450 -124.50572 2600 ft 129 kts 346°
2026-04-27 17:54 49.26242 -124.50867 2203 ft 109 kts 17°
2026-04-27 17:54 49.26650 -124.50252 1931 ft 83 kts 112°
2026-04-27 17:54 49.26347 -124.49685 1947 ft 72 kts 193°
2026-04-27 17:55 49.25894 -124.49945 1851 ft 77 kts 221°
2026-04-27 17:55 49.25522 -124.50565 1977 ft 78 kts 226°
2026-04-27 17:55 49.25492 -124.51102 2174 ft 50 kts 26°
2026-04-27 17:55 49.25622 -124.50713 1978 ft 41 kts 77°
2026-04-27 17:56 49.25654 -124.50294 1820 ft 34 kts 59°
2026-04-27 17:56 49.25672 -124.50151 1623 ft 0 kts 56°
2026-04-27 17:57 49.25772 -124.50010 1613 ft 61 kts 36°
2026-04-27 17:57 49.26316 -124.49468 1405 ft 114 kts 36°
2026-04-27 17:58 49.27079 -124.48644 1327 ft 151 kts 36°
2026-04-27 17:58 49.27952 -124.47725 1335 ft 156 kts 36°
2026-04-27 17:58 49.28824 -124.46711 1335 ft 159 kts 39°
2026-04-27 17:58 49.29728 -124.45658 1331 ft 159 kts 39°
2026-04-27 17:59 49.30614 -124.44646 1331 ft 159 kts 39°
2026-04-27 17:59 49.31504 -124.43641 1328 ft 158 kts 39°
2026-04-27 17:59 49.32384 -124.42637 1329 ft 157 kts 39°
2026-04-27 17:59 49.33226 -124.41651 968 ft 134 kts 36°
2026-04-27 18:00 49.33854 -124.40830 783 ft 107 kts 38°
2026-04-27 18:00 49.34095 -124.40077 448 ft 57 kts 121°
2026-04-27 18:00 49.33873 -124.39656 374 ft 52 kts 110°
2026-04-27 18:00 49.33795 -124.39318 277 ft 16 kts 23°
2026-04-27 18:01 49.33813 -124.39246 242 ft 3 kts 34°
2026-04-27 18:01 49.33817 -124.39238 230 ft 0 kts 37°
2026-04-27 18:04 49.33800 -124.39252 228 ft 2 kts 37°
2026-04-27 18:04 49.33799 -124.39252 227 ft 0 kts 37°
2026-04-27 18:04 49.33801 -124.39257 239 ft 4 kts 37°
2026-04-27 18:04 49.33823 -124.39291 241 ft 1 kts 126°
2026-04-27 18:05 49.33823 -124.39289 244 ft 1 kts 120°
2026-04-27 18:05 49.33824 -124.39285 245 ft 2 kts 115°
2026-04-27 18:05 49.33822 -124.39285 268 ft 4 kts 128°
2026-04-27 18:05 49.33586 -124.39138 460 ft 75 kts 130°
2026-04-27 18:06 49.32895 -124.39110 882 ft 123 kts 194°
2026-04-27 18:06 49.32203 -124.40016 1416 ft 137 kts 227°
2026-04-27 18:06 49.31530 -124.41147 1639 ft 146 kts 226°
2026-04-27 18:06 49.30831 -124.42276 2150 ft 136 kts 226°
2026-04-27 18:07 49.30197 -124.43295 2746 ft 133 kts 226°
2026-04-27 18:07 49.29546 -124.44325 3151 ft 136 kts 226°
2026-04-27 18:07 49.28864 -124.45395 3424 ft 142 kts 226°
2026-04-27 18:07 49.28152 -124.46508 3497 ft 150 kts 226°
2026-04-27 18:08 49.27479 -124.47560 3601 ft 128 kts 226°
2026-04-27 18:08 49.26814 -124.48450 3702 ft 127 kts 219°
2026-04-27 18:08 49.26061 -124.49138 3714 ft 126 kts 208°
2026-04-27 18:08 49.25231 -124.49573 3699 ft 128 kts 196°
2026-04-27 18:09 49.24353 -124.49730 3634 ft 122 kts 181°
2026-04-27 18:09 49.23615 -124.49718 3698 ft 89 kts 175°
2026-04-27 18:09 49.23101 -124.49975 3482 ft 61 kts 178°
2026-04-27 18:09 49.22983 -124.50048 3315 ft 2 kts 169°
2026-04-27 18:10 49.22967 -124.50055 3301 ft 1 kts 169°
2026-04-27 18:10 49.22966 -124.50055 3289 ft 1 kts 169°
2026-04-27 18:10 49.22961 -124.50040 3451 ft 9 kts 169°
2026-04-27 18:10 49.22720 -124.49857 3639 ft 68 kts 123°
2026-04-27 18:11 49.22585 -124.49360 3819 ft 85 kts 78°
2026-04-27 18:11 49.22941 -124.48827 3855 ft 85 kts 334°
2026-04-27 18:11 49.23637 -124.48951 3776 ft 103 kts 354°
2026-04-27 18:11 49.24370 -124.49139 3564 ft 113 kts 352°
2026-04-27 18:12 49.25197 -124.49359 3209 ft 124 kts 351°
2026-04-27 18:12 49.25710 -124.50122 2917 ft 93 kts 240°
2026-04-27 18:12 49.25249 -124.50508 2810 ft 92 kts 144°
2026-04-27 18:12 49.24698 -124.50215 2904 ft 91 kts 166°
2026-04-27 18:13 49.24135 -124.49826 3443 ft 89 kts 166°
2026-04-27 18:13 49.23437 -124.49848 3613 ft 94 kts 185°
2026-04-27 18:13 49.23017 -124.50052 3353 ft 23 kts 166°
2026-04-27 18:13 49.22968 -124.50068 3284 ft 1 kts 155°
2026-04-27 18:14 49.22950 -124.50053 3369 ft 7 kts 155°
2026-04-27 18:14 49.22756 -124.49747 3513 ft 73 kts 116°
2026-04-27 18:14 49.23048 -124.49078 3643 ft 108 kts
2026-04-27 18:14 49.23732 -124.49520 3631 ft 106 kts 335°
2026-04-27 18:15 49.24346 -124.49987 3276 ft 92 kts 330°
2026-04-27 18:15 49.24940 -124.50375 2784 ft 92 kts 338°
2026-04-27 18:15 49.25486 -124.50283 3010 ft 87 kts 76°
2026-04-27 18:15 49.25159 -124.49592 3561 ft 92 kts 155°
2026-04-27 18:16 49.24493 -124.49176 3723 ft 109 kts 159°
2026-04-27 18:16 49.23687 -124.49119 3683 ft 116 kts 188°
2026-04-27 18:16 49.23205 -124.49634 3571 ft 42 kts 322°
2026-04-27 18:16 49.23289 -124.49717 3283 ft 1 kts 346°
2026-04-27 18:17 49.23293 -124.49731 3333 ft 7 kts 360°
2026-04-27 18:17 49.23502 -124.49723 3448 ft 61 kts
2026-04-27 18:17 49.24112 -124.49965 3427 ft 125 kts 325°
2026-04-27 18:17 49.24967 -124.50417 2715 ft 135 kts 334°
2026-04-27 18:18 49.25744 -124.50115 2342 ft 124 kts 93°
2026-04-27 18:18 49.25438 -124.49529 3000 ft 112 kts 170°
2026-04-27 18:18 49.24606 -124.49030 3365 ft 138 kts 176°
2026-04-27 18:18 49.23701 -124.49484 3589 ft 136 kts 207°
2026-04-27 18:19 49.23122 -124.49963 3483 ft 44 kts 167°
2026-04-27 18:19 49.22989 -124.50049 3280 ft 2 kts 176°
2026-04-27 18:19 49.22987 -124.50028 3320 ft 5 kts 183°
2026-04-27 18:19 49.22751 -124.49837 3500 ft 71 kts 115°
2026-04-27 18:20 49.23107 -124.49175 3687 ft 115 kts 353°
2026-04-27 18:20 49.23976 -124.49454 3619 ft 124 kts 339°
2026-04-27 18:20 49.24700 -124.49846 2952 ft 95 kts 317°
2026-04-27 18:20 49.24978 -124.50156 2518 ft 14 kts 187°
2026-04-27 18:21 49.24908 -124.50159 2504 ft 5 kts 156°
2026-04-27 18:21 49.24905 -124.50177 2536 ft 2 kts 146°
2026-04-27 18:21 49.24882 -124.50085 2618 ft 38 kts 133°
2026-04-27 18:21 49.25052 -124.49434 2601 ft 84 kts 46°
2026-04-27 18:22 49.25527 -124.48720 2102 ft 108 kts 33°
2026-04-27 18:22 49.26204 -124.48131 2053 ft 108 kts 31°
2026-04-27 18:22 49.26850 -124.47555 2031 ft 109 kts 31°
2026-04-27 18:22 49.27497 -124.46972 2026 ft 107 kts 31°
2026-04-27 18:23 49.28174 -124.46373 2018 ft 108 kts 31°
2026-04-27 18:23 49.28828 -124.45801 2015 ft 109 kts 31°
2026-04-27 18:23 49.29489 -124.45228 2006 ft 108 kts 31°
2026-04-27 18:23 49.30143 -124.44671 2001 ft 107 kts 31°
2026-04-27 18:24 49.30801 -124.44121 1996 ft 108 kts 31°
2026-04-27 18:24 49.31461 -124.43577 1978 ft 108 kts 31°
2026-04-27 18:24 49.32115 -124.42940 1716 ft 114 kts 37°
2026-04-27 18:24 49.32735 -124.42150 1420 ft 115 kts 40°
2026-04-27 18:25 49.33323 -124.41406 1082 ft 100 kts 40°
2026-04-27 18:25 49.33713 -124.40904 812 ft 61 kts 40°
2026-04-27 18:25 49.33972 -124.40408 638 ft 63 kts 72°
2026-04-27 18:25 49.33963 -124.39858 445 ft 45 kts 126°
2026-04-27 18:26 49.33824 -124.39485 335 ft 36 kts 98°
2026-04-27 18:26 49.33821 -124.39307 257 ft 3 kts 82°
2026-04-27 18:26 49.33811 -124.39292 255 ft 8 kts 74°
2026-04-27 18:26 49.33817 -124.39240 236 ft 2 kts 35°
2026-04-27 18:27 49.33817 -124.39239 231 ft 0 kts 36°
2026-04-27 18:27 49.33819 -124.39237 231 ft 1 kts 36°